Time,TemperatureF,DewpointF,PressureIn,WindDirection,WindDirectionDegrees,WindSpeedMPH,WindSpeedGustMPH,Humidity,HourlyPrecipIn,Conditions,Clouds,dailyrainin,SoftwareType,DateUTC
2013-07-28 00:02:00,56.9,51.0,29.89,SSW,200,9.0,-999.0,80,-99.99,,,0.00,weatherlink.com 1.10,2013-07-28 04:02:00,
2013-07-28 00:17:00,57.0,51.0,29.89,South,187,6.0,-999.0,79,-99.99,,,0.00,weatherlink.com 1.10,2013-07-28 04:17:00,
2013-07-28 00:32:00,57.0,51.0,29.89,South,186,2.0,-999.0,79,-99.99,,,0.00,weatherlink.com 1.10,2013-07-28 04:32:00,
2013-07-28 00:47:00,57.0,51.0,29.88,SSW,200,4.0,-999.0,79,-99.99,,,0.00,weatherlink.com 1.10,2013-07-28 04:47:00,
2013-07-28 01:02:00,57.1,51.0,29.88,SSE,157,5.0,-999.0,79,-99.99,,,0.00,weatherlink.com 1.10,2013-07-28 05:02:00,
2013-07-28 01:17:00,57.2,50.0,29.88,SE,145,3.0,-999.0,78,-99.99,,,0.00,weatherlink.com 1.10,2013-07-28 05:17:00,
2013-07-28 01:32:00,57.3,51.0,29.87,South,186,5.0,-999.0,78,-99.99,,,0.00,weatherlink.com 1.10,2013-07-28 05:32:00,
2013-07-28 01:47:00,57.5,50.0,29.87,South,182,4.0,-999.0,77,-99.99,,,0.00,weatherlink.com 1.10,2013-07-28 05:47:00,
2013-07-28 02:02:00,57.6,50.0,29.87,SE,132,6.0,-999.0,76,-99.99,,,0.00,weatherlink.com 1.10,2013-07-28 06:02:00,
2013-07-28 02:17:00,57.2,50.0,29.86,South,175,4.0,-999.0,78,-99.99,,,0.00,weatherlink.com 1.10,2013-07-28 06:17:00,
2013-07-28 02:32:00,57.3,51.0,29.86,SSE,159,8.0,-999.0,78,-99.99,,,0.00,weatherlink.com 1.10,2013-07-28 06:32:00,
2013-07-28 02:47:00,57.5,50.0,29.86,SSW,200,10.0,-999.0,77,-99.99,,,0.00,weatherlink.com 1.10,2013-07-28 06:47:00,
2013-07-28 03:02:00,57.3,50.0,29.85,SSW,213,5.0,-999.0,77,-99.99,,,0.00,weatherlink.com 1.10,2013-07-28 07:02:00,
2013-07-28 03:17:00,57.3,50.0,29.85,SSE,163,11.0,-999.0,76,-99.99,,,0.01,weatherlink.com 1.10,2013-07-28 07:17:00,
2013-07-28 03:32:00,57.3,49.0,29.84,SSW,213,8.0,-999.0,75,-99.99,,,0.01,weatherlink.com 1.10,2013-07-28 07:32:00,
2013-07-28 03:47:00,57.2,49.0,29.85,SSW,192,3.0,-999.0,75,-99.99,,,0.01,weatherlink.com 1.10,2013-07-28 07:47:00,
2013-07-28 04:02:00,57.1,49.0,29.85,SW,222,19.0,-999.0,74,-99.99,,,0.01,weatherlink.com 1.10,2013-07-28 08:02:00,
2013-07-28 04:17:00,56.9,49.0,29.84,SSW,206,10.0,-999.0,74,-99.99,,,0.01,weatherlink.com 1.10,2013-07-28 08:17:00,
2013-07-28 04:32:00,57.1,49.0,29.85,WSW,242,18.0,-999.0,74,-99.99,,,0.03,weatherlink.com 1.10,2013-07-28 08:32:00,
2013-07-28 04:48:00,56.6,49.0,29.86,SW,221,15.0,-999.0,75,-99.99,,,0.08,weatherlink.com 1.10,2013-07-28 08:48:00,
2013-07-28 05:03:00,56.3,48.0,29.86,WSW,252,8.0,-999.0,75,-99.99,,,0.08,weatherlink.com 1.10,2013-07-28 09:03:00,
2013-07-28 05:18:00,56.1,48.0,29.87,WSW,251,9.0,-999.0,75,-99.99,,,0.08,weatherlink.com 1.10,2013-07-28 09:18:00,
2013-07-28 05:33:00,55.9,48.0,29.87,WSW,257,9.0,-999.0,74,-99.99,,,0.09,weatherlink.com 1.10,2013-07-28 09:33:00,
2013-07-28 05:48:00,55.7,48.0,29.88,SW,235,7.0,-999.0,75,-99.99,,,0.09,weatherlink.com 1.10,2013-07-28 09:48:00,
2013-07-28 06:03:00,55.5,48.0,29.88,WSW,244,4.0,-999.0,75,-99.99,,,0.09,weatherlink.com 1.10,2013-07-28 10:03:00,
2013-07-28 06:18:00,54.9,47.0,29.89,SW,236,7.0,-999.0,75,-99.99,,,0.09,weatherlink.com 1.10,2013-07-28 10:18:00,
2013-07-28 06:33:00,54.7,47.0,29.89,WSW,242,5.0,-999.0,75,-99.99,,,0.09,weatherlink.com 1.10,2013-07-28 10:33:00,
2013-07-28 06:48:00,54.5,47.0,29.89,WSW,250,4.0,-999.0,75,-99.99,,,0.09,weatherlink.com 1.10,2013-07-28 10:48:00,
2013-07-28 07:03:00,54.2,47.0,29.90,WSW,253,4.0,-999.0,76,-99.99,,,0.09,weatherlink.com 1.10,2013-07-28 11:03:00,
2013-07-28 07:18:00,54.6,47.0,29.91,WSW,238,5.0,-999.0,75,-99.99,,,0.09,weatherlink.com 1.10,2013-07-28 11:18:00,
2013-07-28 07:33:00,54.4,47.0,29.91,WSW,247,7.0,-999.0,75,-99.99,,,0.09,weatherlink.com 1.10,2013-07-28 11:33:00,
2013-07-28 07:48:00,54.4,47.0,29.91,WSW,251,10.0,-999.0,76,-99.99,,,0.09,weatherlink.com 1.10,2013-07-28 11:48:00,
2013-07-28 08:03:00,54.5,49.0,29.91,WSW,240,7.0,-999.0,83,-99.99,,,0.09,weatherlink.com 1.10,2013-07-28 12:03:00,
2013-07-28 08:18:00,54.9,52.0,29.91,WSW,242,7.0,-999.0,91,-99.99,,,0.09,weatherlink.com 1.10,2013-07-28 12:18:00,
2013-07-28 08:33:00,55.1,53.0,29.92,SW,234,6.0,-999.0,93,-99.99,,,0.09,weatherlink.com 1.10,2013-07-28 12:33:00,
2013-07-28 08:48:00,55.4,54.0,29.92,WSW,255,8.0,-999.0,93,-99.99,,,0.09,weatherlink.com 1.10,2013-07-28 12:48:00,
2013-07-28 09:03:00,55.4,53.0,29.92,WSW,238,6.0,-999.0,92,-99.99,,,0.09,weatherlink.com 1.10,2013-07-28 13:03:00,
2013-07-28 09:18:00,56.4,53.0,29.93,SW,223,7.0,-999.0,89,-99.99,,,0.09,weatherlink.com 1.10,2013-07-28 13:18:00,
2013-07-28 09:33:00,57.7,53.0,29.92,SW,229,6.0,-999.0,85,-99.99,,,0.09,weatherlink.com 1.10,2013-07-28 13:33:00,
2013-07-28 09:48:00,58.5,54.0,29.92,WSW,242,12.0,-999.0,84,-99.99,,,0.09,weatherlink.com 1.10,2013-07-28 13:48:00,
2013-07-28 10:03:00,59.8,54.0,29.92,West,274,5.0,-999.0,82,-99.99,,,0.09,weatherlink.com 1.10,2013-07-28 14:03:00,
2013-07-28 10:18:00,60.1,55.0,29.91,West,273,9.0,-999.0,82,-99.99,,,0.09,weatherlink.com 1.10,2013-07-28 14:18:00,
2013-07-28 10:33:00,60.9,55.0,29.92,SW,234,4.0,-999.0,80,-99.99,,,0.09,weatherlink.com 1.10,2013-07-28 14:33:00,
2013-07-28 10:48:00,62.3,56.0,29.92,West,267,4.0,-999.0,80,-99.99,,,0.09,weatherlink.com 1.10,2013-07-28 14:48:00,
2013-07-28 11:03:00,62.0,55.0,29.92,WSW,241,8.0,-999.0,79,-99.99,,,0.09,weatherlink.com 1.10,2013-07-28 15:03:00,
2013-07-28 11:18:00,60.2,56.0,29.92,SW,231,14.0,-999.0,85,-99.99,,,0.09,weatherlink.com 1.10,2013-07-28 15:18:00,
2013-07-28 11:33:00,60.6,56.0,29.92,WSW,238,8.0,-999.0,85,-99.99,,,0.09,weatherlink.com 1.10,2013-07-28 15:33:00,
2013-07-28 11:48:00,60.2,56.0,29.92,SW,224,9.0,-999.0,86,-99.99,,,0.09,weatherlink.com 1.10,2013-07-28 15:48:00,
2013-07-28 12:03:00,60.7,56.0,29.92,SW,227,16.0,-999.0,83,-99.99,,,0.09,weatherlink.com 1.10,2013-07-28 16:03:00,
2013-07-28 12:18:00,60.4,56.0,29.92,NW,309,10.0,-999.0,85,-99.99,,,0.09,weatherlink.com 1.10,2013-07-28 16:18:00,
2013-07-28 12:33:00,61.7,56.0,29.92,WSW,244,14.0,-999.0,81,-99.99,,,0.09,weatherlink.com 1.10,2013-07-28 16:33:00,
2013-07-28 12:48:00,61.8,56.0,29.93,SW,216,11.0,-999.0,82,-99.99,,,0.09,weatherlink.com 1.10,2013-07-28 16:48:00,
2013-07-28 13:03:00,62.7,56.0,29.93,SW,231,14.0,-999.0,78,-99.99,,,0.09,weatherlink.com 1.10,2013-07-28 17:03:00,
2013-07-28 13:18:00,62.4,55.0,29.93,WSW,248,7.0,-999.0,78,-99.99,,,0.09,weatherlink.com 1.10,2013-07-28 17:18:00,
2013-07-28 13:33:00,63.5,57.0,29.93,WSW,237,4.0,-999.0,79,-99.99,,,0.09,weatherlink.com 1.10,2013-07-28 17:33:00,
2013-07-28 13:48:00,62.2,56.0,29.93,SW,227,14.0,-999.0,81,-99.99,,,0.09,weatherlink.com 1.10,2013-07-28 17:48:00,
2013-07-28 14:03:00,61.7,57.0,29.94,WSW,240,13.0,-999.0,83,-99.99,,,0.09,weatherlink.com 1.10,2013-07-28 18:03:00,
2013-07-28 14:18:00,60.5,56.0,29.93,WSW,246,11.0,-999.0,85,-99.99,,,0.09,weatherlink.com 1.10,2013-07-28 18:18:00,
2013-07-28 14:33:00,64.2,57.0,29.93,SW,218,14.0,-999.0,78,-99.99,,,0.09,weatherlink.com 1.10,2013-07-28 18:33:00,
2013-07-28 14:48:00,66.0,57.0,29.92,WSW,244,10.0,-999.0,73,-99.99,,,0.09,weatherlink.com 1.10,2013-07-28 18:48:00,
2013-07-28 15:03:00,65.4,57.0,29.91,SW,225,10.0,-999.0,74,-99.99,,,0.09,weatherlink.com 1.10,2013-07-28 19:03:00,
2013-07-28 15:18:00,66.1,57.0,29.90,WSW,250,16.0,-999.0,72,-99.99,,,0.09,weatherlink.com 1.10,2013-07-28 19:18:00,
2013-07-28 15:34:00,66.4,57.0,29.91,SSW,207,9.0,-999.0,71,-99.99,,,0.09,weatherlink.com 1.10,2013-07-28 19:34:00,
2013-07-28 15:49:00,65.4,57.0,29.90,WSW,249,10.0,-999.0,73,-99.99,,,0.09,weatherlink.com 1.10,2013-07-28 19:49:00,
2013-07-28 16:04:00,65.3,57.0,29.89,SW,236,19.0,-999.0,75,-99.99,,,0.09,weatherlink.com 1.10,2013-07-28 20:04:00,
2013-07-28 16:19:00,65.6,57.0,29.89,WSW,238,8.0,-999.0,73,-99.99,,,0.09,weatherlink.com 1.10,2013-07-28 20:19:00,
2013-07-28 16:34:00,64.4,56.0,29.89,WSW,240,9.0,-999.0,74,-99.99,,,0.09,weatherlink.com 1.10,2013-07-28 20:34:00,
2013-07-28 16:49:00,66.2,57.0,29.89,SW,233,8.0,-999.0,72,-99.99,,,0.09,weatherlink.com 1.10,2013-07-28 20:49:00,
2013-07-28 17:04:00,66.3,56.0,29.90,SSW,200,11.0,-999.0,70,-99.99,,,0.09,weatherlink.com 1.10,2013-07-28 21:04:00,
2013-07-28 17:19:00,65.7,56.0,29.90,SW,226,7.0,-999.0,72,-99.99,,,0.09,weatherlink.com 1.10,2013-07-28 21:19:00,
2013-07-28 17:34:00,65.9,57.0,29.90,WSW,247,10.0,-999.0,73,-99.99,,,0.09,weatherlink.com 1.10,2013-07-28 21:34:00,
2013-07-28 17:49:00,65.6,56.0,29.90,West,275,10.0,-999.0,72,-99.99,,,0.09,weatherlink.com 1.10,2013-07-28 21:49:00,
2013-07-28 18:04:00,65.2,56.0,29.90,WSW,255,9.0,-999.0,71,-99.99,,,0.09,weatherlink.com 1.10,2013-07-28 22:04:00,
2013-07-28 18:19:00,65.0,57.0,29.91,WNW,287,9.0,-999.0,74,-99.99,,,0.09,weatherlink.com 1.10,2013-07-28 22:19:00,
2013-07-28 18:34:00,64.2,57.0,29.91,WSW,251,12.0,-999.0,76,-99.99,,,0.09,weatherlink.com 1.10,2013-07-28 22:34:00,
2013-07-28 18:49:00,63.8,56.0,29.91,WSW,249,10.0,-999.0,76,-99.99,,,0.09,weatherlink.com 1.10,2013-07-28 22:49:00,
2013-07-28 19:04:00,63.4,57.0,29.92,WSW,240,7.0,-999.0,79,-99.99,,,0.09,weatherlink.com 1.10,2013-07-28 23:04:00,
2013-07-28 19:19:00,62.9,56.0,29.93,SW,219,5.0,-999.0,79,-99.99,,,0.09,weatherlink.com 1.10,2013-07-28 23:19:00,
2013-07-28 19:34:00,61.4,56.0,29.93,WSW,242,8.0,-999.0,82,-99.99,,,0.09,weatherlink.com 1.10,2013-07-28 23:34:00,
2013-07-28 19:49:00,60.4,55.0,29.93,WSW,253,2.0,-999.0,83,-99.99,,,0.09,weatherlink.com 1.10,2013-07-28 23:49:00,
2013-07-28 20:04:00,58.9,56.0,29.93,West,281,7.0,-999.0,89,-99.99,,,0.09,weatherlink.com 1.10,2013-07-29 00:04:00,
2013-07-28 20:19:00,57.7,55.0,29.94,WSW,248,4.0,-999.0,90,-99.99,,,0.09,weatherlink.com 1.10,2013-07-29 00:19:00,
2013-07-28 20:34:00,56.9,55.0,29.95,WSW,242,8.0,-999.0,92,-99.99,,,0.09,weatherlink.com 1.10,2013-07-29 00:34:00,
2013-07-28 20:49:00,56.6,55.0,29.95,West,277,8.0,-999.0,93,-99.99,,,0.09,weatherlink.com 1.10,2013-07-29 00:49:00,
2013-07-28 21:04:00,56.0,54.0,29.96,WSW,244,2.0,-999.0,93,-99.99,,,0.09,weatherlink.com 1.10,2013-07-29 01:04:00,
2013-07-28 21:19:00,55.5,54.0,29.96,WSW,248,7.0,-999.0,93,-99.99,,,0.09,weatherlink.com 1.10,2013-07-29 01:19:00,
2013-07-28 21:34:00,55.1,53.0,29.97,WSW,240,8.0,-999.0,93,-99.99,,,0.09,weatherlink.com 1.10,2013-07-29 01:34:00,
2013-07-28 21:49:00,54.9,53.0,29.98,WSW,238,1.0,-999.0,93,-99.99,,,0.09,weatherlink.com 1.10,2013-07-29 01:49:00,
2013-07-28 22:19:00,54.0,52.0,29.98,WSW,245,10.0,-999.0,93,-99.99,,,0.09,weatherlink.com 1.10,2013-07-29 02:19:00,
2013-07-28 22:34:00,53.2,51.0,29.98,West,259,9.0,-999.0,93,-99.99,,,0.09,weatherlink.com 1.10,2013-07-29 02:34:00,
2013-07-28 23:04:00,52.7,51.0,29.97,SW,232,7.0,-999.0,93,-99.99,,,0.09,weatherlink.com 1.10,2013-07-29 03:04:00,
2013-07-28 23:19:00,52.7,51.0,29.98,WSW,248,10.0,-999.0,92,-99.99,,,0.09,weatherlink.com 1.10,2013-07-29 03:19:00,
2013-07-28 23:34:00,52.6,51.0,29.98,West,280,7.0,-999.0,93,-99.99,,,0.09,weatherlink.com 1.10,2013-07-29 03:34:00,
2013-07-28 23:49:00,52.3,50.0,29.98,West,261,6.0,-999.0,92,-99.99,,,0.09,weatherlink.com 1.10,2013-07-29 03:49:00,